Weather in Bagrash-Bigra

Russia / Udmurt Republic     56°31′05″N   52°56′24″E
temp.,
°C
wind,
m/s
gust,
m/s
humid.,
%
clouds,
%
prec.,
mm/h
press.,
hPa
HPBL,
m
12 april, mon
mon1201:00+3n3599100 0.3 1034116
04:00+1n3589100 0.3 103699
07:00+1n2592100 0.0 1037105
10:00+6ne3586100 0.0 1038228
13:00+10ne3476100 0.0 1038486
16:00+11ne3473100 0.0 1039689
19:00+8ne3590100 0.0 103983
22:00+6ene3593100 0.0 104071
13 april, tue
tue1301:00+5ese2293100 0.0 103931
04:00+4se2295100 0.0 104024
07:00+5ese2689100 0.0 1039125
10:00+9se356799 0.0 1038335
13:00+14sse455460 0.0 1037593
16:00+15s345297 0.0 1036725
19:00+12sse227559 0.0 103414
22:00+10s228754 0.0 103417
14 april, wed
wed1401:00+9ssw228967 0.0 103317
04:00+8ssw228845 0.0 103320
07:00+9ssw228654 0.0 103250
10:00+14ssw336487 0.0 1032414
13:00+17ssw344930 0.0 1030945
16:00+17s44485 0.0 10291043
19:00+14sse226638 0.0 102727
22:00+11sse227330 0.0 102719
15 april, thu
thu1501:00+9s237838 0.0 102624
04:00+8s22815 0.0 102621
07:00+8s26815 0.0 1025128
10:00+14ssw46551 0.0 1024516
13:00+17sw46425 0.0 10221193
16:00+17sw45400 0.0 10201413
19:00+14sw33550 0.0 101930
22:00+11wsw22640 0.0 101918
16 april, fri
fri1601:00+10w22700 0.0 101810
04:00+8w11754 0.0 101810
07:00+9wnw227582 0.0 101726
10:00+10nne458799 0.4 1017450
13:00+10nne567099 0.1 1018905
16:00+4nne71194100 0.1 1021576
19:00+5n28755 0.1 1022567
22:00+3nne511570 0.1 1023428